Time,TemperatureF,DewpointF,PressureIn,WindDirection,WindDirectionDegrees,WindSpeedMPH,WindSpeedGustMPH,Humidity,HourlyPrecipIn,Conditions,Clouds,dailyrainin,SolarRadiationWatts/m^2,SoftwareType,DateUTC
2013-04-29 00:01:00,62.8,53.6,29.75,SSE,160,10.4,10.4,72,0.00,SCT,,0.00,0.0,WeatherDisplay:10.37,2013-04-29 05:01:00,
2013-04-29 00:06:00,62.7,53.5,29.75,South,183,5.8,5.8,72,0.00,SCT,,0.00,0.0,WeatherDisplay:10.37,2013-04-29 05:06:00,
2013-04-29 00:11:00,62.6,53.4,29.75,SSW,193,8.1,8.1,72,0.00,SCT,,0.00,0.0,WeatherDisplay:10.37,2013-04-29 05:11:00,
2013-04-29 00:16:00,62.6,53.4,29.75,SSE,150,7.0,7.0,72,0.00,SCT,,0.00,0.0,WeatherDisplay:10.37,2013-04-29 05:16:00,
2013-04-29 00:21:00,62.5,53.3,29.75,South,190,8.1,8.1,72,0.00,SCT,,0.00,0.0,WeatherDisplay:10.37,2013-04-29 05:21:00,
2013-04-29 00:26:00,62.4,53.3,29.75,South,190,6.9,6.9,72,0.00,SCT,,0.00,0.0,WeatherDisplay:10.37,2013-04-29 05:26:00,
2013-04-29 00:31:00,62.3,53.2,29.75,South,184,11.5,11.5,72,0.00,SCT,,0.00,0.0,WeatherDisplay:10.37,2013-04-29 05:31:00,
2013-04-29 00:36:00,62.2,53.1,29.75,South,174,6.0,6.0,72,0.00,SCT,,0.00,0.0,WeatherDisplay:10.37,2013-04-29 05:36:00,
2013-04-29 00:41:00,62.0,52.9,29.75,SSE,167,6.9,6.9,72,0.00,SCT,,0.00,0.0,WeatherDisplay:10.37,2013-04-29 05:41:00,
2013-04-29 00:46:00,61.8,52.7,29.75,SW,223,6.9,6.9,72,0.00,SCT,,0.00,0.0,WeatherDisplay:10.37,2013-04-29 05:46:00,
2013-04-29 00:51:00,61.6,52.9,29.75,SSE,156,5.8,5.8,73,0.00,SCT,,0.00,0.0,WeatherDisplay:10.37,2013-04-29 05:51:00,
2013-04-29 00:56:00,61.4,52.7,29.75,South,184,5.8,5.8,73,0.00,SCT,,0.00,0.0,WeatherDisplay:10.37,2013-04-29 05:56:00,
2013-04-29 01:01:00,61.3,52.6,29.75,South,179,8.1,8.1,73,0.00,SCT,,0.00,0.0,WeatherDisplay:10.37,2013-04-29 06:01:00,
2013-04-29 01:06:00,61.1,52.7,29.75,South,173,7.0,7.0,74,0.00,SCT,,0.00,0.0,WeatherDisplay:10.37,2013-04-29 06:06:00,
2013-04-29 01:11:00,60.8,52.5,29.75,SSW,196,7.0,7.0,74,0.00,SCT,,0.00,0.0,WeatherDisplay:10.37,2013-04-29 06:11:00,
2013-04-29 01:16:00,60.5,52.2,29.75,SE,144,5.8,5.8,74,0.00,SCT,,0.00,0.0,WeatherDisplay:10.37,2013-04-29 06:16:00,
2013-04-29 01:21:00,60.3,52.3,29.75,SSW,196,8.1,8.1,75,0.00,SCT,,0.00,0.0,WeatherDisplay:10.37,2013-04-29 06:21:00,
2013-04-29 01:26:00,60.0,52.1,29.75,South,171,6.9,6.9,75,0.00,SCT,,0.00,0.0,WeatherDisplay:10.37,2013-04-29 06:26:00,
2013-04-29 01:31:00,59.9,52.0,29.75,SE,143,8.1,8.1,75,0.00,SCT,,0.00,0.0,WeatherDisplay:10.37,2013-04-29 06:31:00,
2013-04-29 01:36:00,60.0,52.1,29.75,South,178,8.0,8.0,75,0.00,SCT,,0.00,0.0,WeatherDisplay:10.37,2013-04-29 06:36:00,
2013-04-29 01:41:00,60.1,52.1,29.75,South,170,4.0,4.0,75,0.00,SCT,,0.00,0.0,WeatherDisplay:10.37,2013-04-29 06:41:00,
2013-04-29 01:46:00,60.3,52.3,29.75,South,180,6.9,6.9,75,0.00,SCT,,0.00,0.0,WeatherDisplay:10.37,2013-04-29 06:46:00,
2013-04-29 01:51:00,60.5,52.2,29.74,SSW,203,9.2,9.2,74,0.00,SCT,,0.00,0.0,WeatherDisplay:10.37,2013-04-29 06:51:00,
2013-04-29 01:56:00,60.7,52.4,29.74,SSW,197,8.1,8.1,74,0.00,SCT,,0.00,0.0,WeatherDisplay:10.37,2013-04-29 06:56:00,
2013-04-29 02:01:00,60.9,52.6,29.74,SSW,203,5.8,5.8,74,0.00,SCT,,0.00,0.0,WeatherDisplay:10.37,2013-04-29 07:01:00,
2013-04-29 02:06:00,61.0,52.7,29.74,South,190,8.1,8.1,74,0.00,SCT,,0.00,0.0,WeatherDisplay:10.37,2013-04-29 07:06:00,
2013-04-29 02:11:00,61.2,52.8,29.74,South,181,8.1,8.1,74,0.00,SCT,,0.00,0.0,WeatherDisplay:10.37,2013-04-29 07:11:00,
2013-04-29 02:16:00,61.3,52.9,29.74,South,178,11.5,11.5,74,0.00,SCT,,0.00,0.0,WeatherDisplay:10.37,2013-04-29 07:16:00,
2013-04-29 02:21:00,61.3,53.3,29.74,SSW,205,8.1,8.1,75,0.00,SCT,,0.00,0.0,WeatherDisplay:10.37,2013-04-29 07:21:00,
2013-04-29 02:26:00,61.3,53.3,29.74,South,178,8.1,8.1,75,0.00,SCT,,0.00,0.0,WeatherDisplay:10.37,2013-04-29 07:26:00,
2013-04-29 02:31:00,61.2,53.6,29.73,SSW,213,6.9,6.9,76,0.00,SCT,,0.00,0.0,WeatherDisplay:10.37,2013-04-29 07:31:00,
2013-04-29 02:36:00,61.1,53.5,29.73,SSE,150,10.4,10.4,76,0.00,SCT,,0.00,0.0,WeatherDisplay:10.37,2013-04-29 07:36:00,
2013-04-29 02:41:00,60.9,53.3,29.73,South,178,8.0,8.0,76,0.00,SCT,,0.00,0.0,WeatherDisplay:10.37,2013-04-29 07:41:00,
2013-04-29 02:46:00,60.7,53.4,29.73,South,174,8.0,8.0,77,0.00,SCT,,0.00,0.0,WeatherDisplay:10.37,2013-04-29 07:46:00,
2013-04-29 02:51:00,60.5,53.6,29.73,SE,131,8.1,8.1,78,0.00,SCT,,0.00,0.0,WeatherDisplay:10.37,2013-04-29 07:51:00,
2013-04-29 02:56:00,60.3,53.8,29.73,SSE,165,6.9,6.9,79,0.00,SCT,,0.00,0.0,WeatherDisplay:10.37,2013-04-29 07:56:00,
2013-04-29 03:01:00,60.0,53.5,29.73,SSE,165,5.8,5.8,79,0.00,FEW,,0.00,0.0,WeatherDisplay:10.37,2013-04-29 08:01:00,
2013-04-29 03:06:00,59.8,53.6,29.73,SE,142,3.5,3.5,80,0.00,FEW,,0.00,0.0,WeatherDisplay:10.37,2013-04-29 08:06:00,
2013-04-29 03:11:00,59.5,53.7,29.73,SSE,150,4.6,4.6,81,0.00,FEW,,0.00,0.0,WeatherDisplay:10.37,2013-04-29 08:11:00,
2013-04-29 03:16:00,59.2,53.4,29.73,SE,135,3.5,3.5,81,0.00,FEW,,0.00,0.0,WeatherDisplay:10.37,2013-04-29 08:16:00,
2013-04-29 03:21:00,58.9,53.4,29.73,South,175,3.5,3.5,82,0.00,FEW,,0.00,0.0,WeatherDisplay:10.37,2013-04-29 08:21:00,
2013-04-29 03:26:00,58.7,53.5,29.73,SSE,160,4.6,4.6,83,0.00,FEW,,0.00,0.0,WeatherDisplay:10.37,2013-04-29 08:26:00,
2013-04-29 03:31:00,58.5,53.7,29.73,SSE,167,3.5,3.5,84,0.00,FEW,,0.00,0.0,WeatherDisplay:10.37,2013-04-29 08:31:00,
2013-04-29 03:36:00,58.4,53.6,29.73,South,185,8.1,8.1,84,0.00,FEW,,0.00,0.0,WeatherDisplay:10.37,2013-04-29 08:36:00,
2013-04-29 03:41:00,58.3,53.8,29.73,SSE,155,8.1,8.1,85,0.00,FEW,,0.00,0.0,WeatherDisplay:10.37,2013-04-29 08:41:00,
2013-04-29 03:46:00,58.3,54.1,29.73,SSE,155,5.8,5.8,86,0.00,FEW,,0.00,0.0,WeatherDisplay:10.37,2013-04-29 08:46:00,
2013-04-29 03:51:00,58.3,54.1,29.73,SSW,200,5.8,5.8,86,0.00,FEW,,0.00,0.0,WeatherDisplay:10.37,2013-04-29 08:51:00,
2013-04-29 03:56:00,58.2,54.0,29.73,SSE,161,3.5,3.5,86,0.00,FEW,,0.00,0.0,WeatherDisplay:10.37,2013-04-29 08:56:00,
2013-04-29 04:01:00,58.1,54.2,29.73,SSW,196,4.0,4.0,87,0.00,FEW,,0.00,0.0,WeatherDisplay:10.37,2013-04-29 09:01:00,
2013-04-29 04:06:00,58.0,54.2,29.73,SE,145,4.0,4.0,87,0.00,FEW,,0.00,0.0,WeatherDisplay:10.37,2013-04-29 09:06:00,
2013-04-29 04:11:00,57.8,54.3,29.73,SSE,149,3.5,3.5,88,0.00,FEW,,0.00,0.0,WeatherDisplay:10.37,2013-04-29 09:11:00,
2013-04-29 04:16:00,57.8,54.6,29.73,SE,136,4.6,4.6,89,0.00,FEW,,0.00,0.0,WeatherDisplay:10.37,2013-04-29 09:16:00,
2013-04-29 04:21:00,57.8,54.6,29.73,SSE,158,4.6,4.6,89,0.00,FEW,,0.00,0.0,WeatherDisplay:10.37,2013-04-29 09:21:00,
2013-04-29 04:26:00,57.7,54.8,29.73,South,185,4.6,4.6,90,0.00,FEW,,0.00,0.0,WeatherDisplay:10.37,2013-04-29 09:26:00,
2013-04-29 04:31:00,57.7,54.8,29.73,South,173,4.6,4.6,90,0.00,FEW,,0.00,0.0,WeatherDisplay:10.37,2013-04-29 09:31:00,
2013-04-29 04:36:00,57.6,54.7,29.74,South,171,2.3,2.3,90,0.00,FEW,,0.00,0.0,WeatherDisplay:10.37,2013-04-29 09:36:00,
2013-04-29 04:41:00,57.5,54.6,29.74,SE,138,2.0,2.0,90,0.00,FEW,,0.00,0.0,WeatherDisplay:10.37,2013-04-29 09:41:00,
2013-04-29 04:46:00,57.3,54.4,29.74,SE,138,1.2,1.2,90,0.00,FEW,,0.00,0.0,WeatherDisplay:10.37,2013-04-29 09:46:00,
2013-04-29 04:51:00,57.0,54.1,29.74,SE,138,2.3,2.3,90,0.00,FEW,,0.00,0.0,WeatherDisplay:10.37,2013-04-29 09:51:00,
2013-04-29 04:56:00,56.7,53.8,29.74,SE,138,2.3,2.3,90,0.00,FEW,,0.00,0.0,WeatherDisplay:10.37,2013-04-29 09:56:00,
2013-04-29 05:01:00,56.4,53.5,29.74,SE,138,1.2,1.2,90,0.00,FEW,,0.00,0.0,WeatherDisplay:10.37,2013-04-29 10:01:00,
2013-04-29 05:06:00,56.2,53.3,29.74,SE,138,1.2,1.2,90,0.00,FEW,,0.00,0.0,WeatherDisplay:10.37,2013-04-29 10:06:00,
2013-04-29 05:11:00,55.9,53.3,29.73,SE,138,0.0,0.0,91,0.00,FEW,,0.00,0.0,WeatherDisplay:10.37,2013-04-29 10:11:00,
2013-04-29 05:16:00,55.7,53.1,29.73,SE,136,3.5,3.5,91,0.00,FEW,,0.00,0.0,WeatherDisplay:10.37,2013-04-29 10:16:00,
2013-04-29 05:21:00,55.5,53.2,29.73,SSE,157,2.3,2.3,92,0.00,FEW,,0.00,0.0,WeatherDisplay:10.37,2013-04-29 10:21:00,
2013-04-29 05:26:00,55.4,53.1,29.73,SE,137,3.5,3.5,92,0.00,FEW,,0.00,0.0,WeatherDisplay:10.37,2013-04-29 10:26:00,
2013-04-29 05:31:00,55.3,53.3,29.73,SSE,166,2.3,2.3,93,0.00,FEW,,0.00,0.0,WeatherDisplay:10.37,2013-04-29 10:31:00,
2013-04-29 05:36:00,55.4,53.7,29.73,SE,131,3.5,3.5,94,0.00,FEW,,0.00,0.0,WeatherDisplay:10.37,2013-04-29 10:36:00,
2013-04-29 05:41:00,55.4,53.7,29.73,ESE,110,2.3,2.3,94,0.00,FEW,,0.00,0.0,WeatherDisplay:10.37,2013-04-29 10:41:00,
2013-04-29 05:46:00,55.4,53.7,29.73,SSE,149,2.3,2.3,94,0.00,FEW,,0.00,0.0,WeatherDisplay:10.37,2013-04-29 10:46:00,
2013-04-29 05:51:00,55.3,53.6,29.73,SE,144,1.2,0.0,94,0.00,FEW,,0.00,0.0,WeatherDisplay:10.37,2013-04-29 10:51:00,
2013-04-29 05:56:00,55.3,53.6,29.73,SE,136,2.3,2.3,94,0.00,FEW,,0.00,0.0,WeatherDisplay:10.37,2013-04-29 10:56:00,
2013-04-29 06:01:00,55.3,53.6,29.73,SE,130,4.6,4.6,94,0.00,CLR,,0.00,0.0,WeatherDisplay:10.37,2013-04-29 11:01:00,
2013-04-29 06:06:00,55.2,53.5,29.73,SE,128,2.3,2.3,94,0.00,CLR,,0.00,0.0,WeatherDisplay:10.37,2013-04-29 11:06:00,
2013-04-29 06:11:00,55.1,53.7,29.73,South,178,3.5,3.5,95,0.00,CLR,,0.00,0.0,WeatherDisplay:10.37,2013-04-29 11:11:00,
2013-04-29 06:16:00,55.1,53.7,29.73,ESE,122,3.5,3.5,95,0.00,CLR,,0.00,0.0,WeatherDisplay:10.37,2013-04-29 11:16:00,
2013-04-29 06:21:00,55.2,53.8,29.73,SSE,163,4.6,4.6,95,0.00,CLR,,0.00,0.0,WeatherDisplay:10.37,2013-04-29 11:21:00,
2013-04-29 06:26:00,55.2,54.1,29.73,SSE,152,4.0,4.0,96,0.00,CLR,,0.00,0.0,WeatherDisplay:10.37,2013-04-29 11:26:00,
2013-04-29 06:31:00,55.4,54.3,29.73,ESE,105,3.5,3.5,96,0.00,CLR,,0.00,0.0,WeatherDisplay:10.37,2013-04-29 11:31:00,
2013-04-29 06:36:00,55.5,54.4,29.73,ESE,120,1.2,1.2,96,0.00,CLR,,0.00,0.0,WeatherDisplay:10.37,2013-04-29 11:36:00,
2013-04-29 06:41:00,55.5,54.4,29.73,SSE,157,4.0,4.0,96,0.00,CLR,,0.00,5.0,WeatherDisplay:10.37,2013-04-29 11:41:00,
2013-04-29 06:46:00,55.7,54.9,29.73,South,174,3.5,3.5,97,0.00,CLR,,0.00,9.0,WeatherDisplay:10.37,2013-04-29 11:46:00,
2013-04-29 06:51:00,56.0,55.2,29.73,SSE,148,3.5,3.5,97,0.00,CLR,,0.00,12.0,WeatherDisplay:10.37,2013-04-29 11:51:00,
2013-04-29 06:56:00,56.1,55.0,29.74,SSE,149,4.6,4.6,96,0.00,CLR,,0.00,16.0,WeatherDisplay:10.37,2013-04-29 11:56:00,
2013-04-29 07:01:00,56.2,55.4,29.74,SE,124,4.6,4.6,97,0.00,FEW,,0.00,19.0,WeatherDisplay:10.37,2013-04-29 12:01:00,
2013-04-29 07:06:00,56.2,55.4,29.74,SE,139,3.5,3.5,97,0.00,FEW,,0.00,23.0,WeatherDisplay:10.37,2013-04-29 12:06:00,
2013-04-29 07:11:00,56.3,55.5,29.74,SE,140,2.3,2.3,97,0.00,FEW,,0.00,28.0,WeatherDisplay:10.37,2013-04-29 12:11:00,
2013-04-29 07:16:00,56.4,55.6,29.74,SSE,155,5.0,5.0,97,0.00,FEW,,0.00,30.0,WeatherDisplay:10.37,2013-04-29 12:16:00,
2013-04-29 07:21:00,56.7,55.9,29.74,SE,144,3.5,3.5,97,0.00,FEW,,0.00,35.0,WeatherDisplay:10.37,2013-04-29 12:21:00,
2013-04-29 07:26:00,57.0,56.2,29.74,SSE,153,3.5,3.5,97,0.00,FEW,,0.00,44.0,WeatherDisplay:10.37,2013-04-29 12:26:00,
2013-04-29 07:31:00,57.4,56.6,29.74,SSE,149,3.5,3.5,97,0.00,FEW,,0.00,54.0,WeatherDisplay:10.37,2013-04-29 12:31:00,
2013-04-29 07:36:00,57.8,57.0,29.74,SE,145,5.8,5.8,97,0.00,FEW,,0.00,67.0,WeatherDisplay:10.37,2013-04-29 12:36:00,
2013-04-29 07:41:00,58.1,57.3,29.74,SSE,159,5.8,5.8,97,0.00,FEW,,0.00,95.0,WeatherDisplay:10.37,2013-04-29 12:41:00,
2013-04-29 07:46:00,58.5,57.7,29.74,SSE,167,6.9,6.9,97,0.00,FEW,,0.00,81.0,WeatherDisplay:10.37,2013-04-29 12:46:00,
2013-04-29 07:51:00,58.8,57.7,29.74,SE,138,9.0,9.0,96,0.00,FEW,,0.00,98.0,WeatherDisplay:10.37,2013-04-29 12:51:00,
2013-04-29 07:56:00,59.2,58.1,29.74,SSE,156,5.8,5.8,96,0.00,FEW,,0.00,97.0,WeatherDisplay:10.37,2013-04-29 12:56:00,
2013-04-29 08:01:00,59.6,58.2,29.73,SSE,164,10.4,10.4,95,0.00,CLR,,0.00,95.0,WeatherDisplay:10.37,2013-04-29 13:01:00,
2013-04-29 08:06:00,60.0,58.6,29.73,SE,141,10.4,10.4,95,0.00,CLR,,0.00,134.0,WeatherDisplay:10.37,2013-04-29 13:06:00,
2013-04-29 08:11:00,60.4,58.7,29.74,SSW,207,5.8,5.8,94,0.00,CLR,,0.00,127.0,WeatherDisplay:10.37,2013-04-29 13:11:00,
2013-04-29 08:16:00,60.8,58.8,29.73,South,173,6.9,6.9,93,0.00,CLR,,0.00,118.0,WeatherDisplay:10.37,2013-04-29 13:16:00,
2013-04-29 08:21:00,61.2,59.2,29.74,South,185,11.0,11.0,93,0.00,CLR,,0.00,137.0,WeatherDisplay:10.37,2013-04-29 13:21:00,
2013-04-29 08:26:00,61.7,59.4,29.74,SSE,153,4.0,4.0,92,0.00,CLR,,0.00,158.0,WeatherDisplay:10.37,2013-04-29 13:26:00,
2013-04-29 08:31:00,62.2,59.8,29.74,SSW,196,6.9,6.9,92,0.00,CLR,,0.00,209.0,WeatherDisplay:10.37,2013-04-29 13:31:00,
2013-04-29 08:36:00,62.8,60.1,29.74,SSE,166,6.9,6.9,91,0.00,CLR,,0.00,153.0,WeatherDisplay:10.37,2013-04-29 13:36:00,
2013-04-29 08:41:00,63.4,60.4,29.74,SSW,198,5.8,5.8,90,0.00,CLR,,0.00,202.0,WeatherDisplay:10.37,2013-04-29 13:41:00,
2013-04-29 08:46:00,64.0,60.7,29.74,SW,225,6.9,6.9,89,0.00,CLR,,0.00,190.0,WeatherDisplay:10.37,2013-04-29 13:46:00,
2013-04-29 08:51:00,64.7,61.1,29.74,SSW,205,4.6,4.6,88,0.00,CLR,,0.00,304.0,WeatherDisplay:10.37,2013-04-29 13:51:00,
2013-04-29 08:56:00,65.3,61.3,29.74,SSW,207,6.9,6.9,87,0.00,CLR,,0.00,276.0,WeatherDisplay:10.37,2013-04-29 13:56:00,
2013-04-29 09:01:00,66.0,61.4,29.74,SSW,211,5.0,5.0,85,0.00,CLR,,0.00,294.0,WeatherDisplay:10.37,2013-04-29 14:01:00,
2013-04-29 09:06:00,66.7,61.7,29.74,SSW,204,3.5,3.5,84,0.00,CLR,,0.00,292.0,WeatherDisplay:10.37,2013-04-29 14:06:00,
2013-04-29 09:11:00,67.2,61.5,29.74,South,188,10.4,10.4,82,0.00,CLR,,0.00,292.0,WeatherDisplay:10.37,2013-04-29 14:11:00,
2013-04-29 09:16:00,67.7,61.7,29.75,WSW,244,9.2,9.2,81,0.00,CLR,,0.00,272.0,WeatherDisplay:10.37,2013-04-29 14:16:00,
2013-04-29 09:21:00,68.2,61.8,29.74,SSE,168,6.9,6.9,80,0.00,CLR,,0.00,417.0,WeatherDisplay:10.37,2013-04-29 14:21:00,
2013-04-29 09:26:00,68.6,61.8,29.74,SSW,192,6.9,6.9,79,0.00,CLR,,0.00,330.0,WeatherDisplay:10.37,2013-04-29 14:26:00,
2013-04-29 09:31:00,69.1,61.9,29.75,SW,217,6.0,6.0,78,0.00,CLR,,0.00,367.0,WeatherDisplay:10.37,2013-04-29 14:31:00,
2013-04-29 09:36:00,69.3,61.8,29.74,SSW,205,10.4,10.4,77,0.00,CLR,,0.00,373.0,WeatherDisplay:10.37,2013-04-29 14:36:00,
2013-04-29 09:41:00,69.6,61.7,29.74,SW,216,9.2,9.2,76,0.00,CLR,,0.00,454.0,WeatherDisplay:10.37,2013-04-29 14:41:00,
2013-04-29 09:46:00,69.8,61.5,29.74,SE,142,9.0,9.0,75,0.00,CLR,,0.00,104.0,WeatherDisplay:10.37,2013-04-29 14:46:00,
2013-04-29 09:51:00,69.9,61.6,29.74,South,190,10.4,10.4,75,0.00,CLR,,0.00,510.0,WeatherDisplay:10.37,2013-04-29 14:51:00,
2013-04-29 09:56:00,70.3,62.0,29.74,South,181,9.2,9.2,75,0.00,CLR,,0.00,538.0,WeatherDisplay:10.37,2013-04-29 14:56:00,
2013-04-29 10:01:00,70.6,61.9,29.74,SW,221,8.1,8.1,74,0.00,CLR,,0.00,367.0,WeatherDisplay:10.37,2013-04-29 15:01:00,
2013-04-29 10:06:00,70.9,61.8,29.73,South,190,10.4,10.4,73,0.00,CLR,,0.00,93.0,WeatherDisplay:10.37,2013-04-29 15:06:00,
2013-04-29 10:11:00,71.2,62.1,29.73,South,170,8.0,8.0,73,0.00,CLR,,0.00,105.0,WeatherDisplay:10.37,2013-04-29 15:11:00,
2013-04-29 10:16:00,71.7,62.2,29.73,SSW,198,9.2,9.2,72,0.00,CLR,,0.00,547.0,WeatherDisplay:10.37,2013-04-29 15:16:00,
2013-04-29 10:21:00,72.3,62.4,29.74,South,186,4.6,4.6,71,0.00,CLR,,0.00,504.0,WeatherDisplay:10.37,2013-04-29 15:21:00,
2013-04-29 10:26:00,72.9,62.1,29.73,SSW,208,10.4,10.4,69,0.00,CLR,,0.00,482.0,WeatherDisplay:10.37,2013-04-29 15:26:00,
2013-04-29 10:31:00,73.4,62.2,29.73,SW,225,8.1,8.1,68,0.00,CLR,,0.00,429.0,WeatherDisplay:10.37,2013-04-29 15:31:00,
2013-04-29 10:36:00,73.7,61.6,29.73,South,178,4.6,4.6,66,0.00,CLR,,0.00,155.0,WeatherDisplay:10.37,2013-04-29 15:36:00,
2013-04-29 10:41:00,74.1,62.9,29.73,NW,308,4.6,4.6,68,0.00,CLR,,0.00,568.0,WeatherDisplay:10.37,2013-04-29 15:41:00,
2013-04-29 10:46:00,74.6,62.5,29.72,SSE,163,6.9,6.9,66,0.00,CLR,,0.00,367.0,WeatherDisplay:10.37,2013-04-29 15:46:00,
2013-04-29 10:51:00,74.9,62.3,29.72,South,173,7.0,7.0,65,0.00,CLR,,0.00,276.0,WeatherDisplay:10.37,2013-04-29 15:51:00,
2013-04-29 10:56:00,74.9,62.3,29.72,SSE,153,8.1,8.1,65,0.00,CLR,,0.00,424.0,WeatherDisplay:10.37,2013-04-29 15:56:00,
2013-04-29 11:01:00,75.2,62.2,29.73,SSW,192,7.0,7.0,64,0.00,FEW,,0.00,385.0,WeatherDisplay:10.37,2013-04-29 16:01:00,
2013-04-29 11:06:00,75.5,62.0,29.72,SW,226,6.9,6.9,63,0.00,FEW,,0.00,563.0,WeatherDisplay:10.37,2013-04-29 16:06:00,
2013-04-29 11:11:00,75.8,61.8,29.72,SW,215,8.1,8.1,62,0.00,FEW,,0.00,670.0,WeatherDisplay:10.37,2013-04-29 16:11:00,
2013-04-29 11:16:00,76.0,62.5,29.72,South,185,5.8,5.8,63,0.00,FEW,,0.00,380.0,WeatherDisplay:10.37,2013-04-29 16:16:00,
2013-04-29 11:21:00,76.3,61.9,29.72,SW,214,10.4,10.4,61,0.00,FEW,,0.00,710.0,WeatherDisplay:10.37,2013-04-29 16:21:00,
2013-04-29 11:26:00,76.6,62.1,29.72,SSW,213,6.0,6.0,61,0.00,FEW,,0.00,457.0,WeatherDisplay:10.37,2013-04-29 16:26:00,
2013-04-29 11:31:00,76.9,62.0,29.72,SSW,200,6.9,6.9,60,0.00,FEW,,0.00,454.0,WeatherDisplay:10.37,2013-04-29 16:31:00,
2013-04-29 11:36:00,77.2,61.8,29.72,WSW,241,6.9,6.9,59,0.00,FEW,,0.00,471.0,WeatherDisplay:10.37,2013-04-29 16:36:00,
2013-04-29 11:41:00,77.6,62.1,29.72,SSE,167,5.8,5.8,59,0.00,FEW,,0.00,573.0,WeatherDisplay:10.37,2013-04-29 16:41:00,
2013-04-29 11:46:00,78.0,62.0,29.71,SW,228,6.0,6.0,58,0.00,FEW,,0.00,629.0,WeatherDisplay:10.37,2013-04-29 16:46:00,
2013-04-29 11:51:00,78.3,62.3,29.71,SSW,199,6.9,6.9,58,0.00,FEW,,0.00,793.0,WeatherDisplay:10.37,2013-04-29 16:51:00,
2013-04-29 11:56:00,78.8,62.3,29.71,SSE,159,8.1,8.1,57,0.00,FEW,,0.00,800.0,WeatherDisplay:10.37,2013-04-29 16:56:00,
2013-04-29 12:01:00,79.1,62.1,29.71,SSE,163,6.0,6.0,56,0.00,FEW,,0.00,860.0,WeatherDisplay:10.37,2013-04-29 17:01:00,
2013-04-29 12:06:00,79.2,61.6,29.71,SSW,202,4.6,4.6,55,0.00,FEW,,0.00,868.0,WeatherDisplay:10.37,2013-04-29 17:06:00,
2013-04-29 12:11:00,79.5,63.9,29.71,South,169,6.9,6.9,59,0.00,FEW,,0.00,875.0,WeatherDisplay:10.37,2013-04-29 17:11:00,
2013-04-29 12:16:00,80.0,62.9,29.71,SE,129,5.8,5.8,56,0.00,FEW,,0.00,881.0,WeatherDisplay:10.37,2013-04-29 17:16:00,
2013-04-29 12:21:00,80.2,62.0,29.70,SSW,200,8.1,8.1,54,0.00,FEW,,0.00,889.0,WeatherDisplay:10.37,2013-04-29 17:21:00,
2013-04-29 12:26:00,80.3,61.6,29.70,SSW,206,6.9,6.9,53,0.00,FEW,,0.00,896.0,WeatherDisplay:10.37,2013-04-29 17:26:00,
2013-04-29 12:31:00,80.5,62.3,29.70,South,184,4.6,4.6,54,0.00,FEW,,0.00,898.0,WeatherDisplay:10.37,2013-04-29 17:31:00,
2013-04-29 12:36:00,80.9,62.7,29.70,SSW,208,8.0,8.0,54,0.00,FEW,,0.00,907.0,WeatherDisplay:10.37,2013-04-29 17:36:00,
2013-04-29 12:41:00,81.2,60.8,29.70,SSW,200,9.2,9.2,50,0.00,FEW,,0.00,912.0,WeatherDisplay:10.37,2013-04-29 17:41:00,
2013-04-29 12:46:00,81.4,60.4,29.69,SSW,199,9.2,9.2,49,0.00,FEW,,0.00,916.0,WeatherDisplay:10.37,2013-04-29 17:46:00,
2013-04-29 12:51:00,81.6,60.6,29.69,SW,236,12.0,12.0,49,0.00,FEW,,0.00,921.0,WeatherDisplay:10.37,2013-04-29 17:51:00,
2013-04-29 12:56:00,81.7,59.5,29.69,SSW,211,3.5,3.5,47,0.00,FEW,,0.00,925.0,WeatherDisplay:10.37,2013-04-29 17:56:00,
2013-04-29 13:01:00,81.7,59.5,29.69,South,175,8.1,8.1,47,0.00,FEW,,0.00,925.0,WeatherDisplay:10.37,2013-04-29 18:01:00,
2013-04-29 13:06:00,82.0,61.5,29.68,SW,218,8.1,8.1,50,0.00,FEW,,0.00,930.0,WeatherDisplay:10.37,2013-04-29 18:06:00,
2013-04-29 13:11:00,82.3,62.4,29.68,SSW,200,6.9,6.9,51,0.00,SCT,,0.00,933.0,WeatherDisplay:10.37,2013-04-29 18:11:00,
2013-04-29 13:16:00,82.5,61.4,29.68,SSW,203,6.9,6.9,49,0.00,SCT,,0.00,935.0,WeatherDisplay:10.37,2013-04-29 18:16:00,
2013-04-29 13:21:00,82.9,61.8,29.68,South,171,8.1,8.1,49,0.00,SCT,,0.00,935.0,WeatherDisplay:10.37,2013-04-29 18:21:00,
2013-04-29 13:26:00,83.0,60.1,29.67,South,180,12.7,12.7,46,0.00,SCT,,0.00,940.0,WeatherDisplay:10.37,2013-04-29 18:26:00,
2013-04-29 13:31:00,82.9,61.2,29.67,SSE,162,10.0,10.0,48,0.00,SCT,,0.00,939.0,WeatherDisplay:10.37,2013-04-29 18:31:00,
2013-04-29 13:36:00,83.0,60.7,29.67,South,186,11.5,11.5,47,0.00,SCT,,0.00,942.0,WeatherDisplay:10.37,2013-04-29 18:36:00,
2013-04-29 13:41:00,83.0,61.3,29.67,SSW,193,9.2,9.2,48,0.00,SCT,,0.00,942.0,WeatherDisplay:10.37,2013-04-29 18:41:00,
2013-04-29 13:46:00,82.9,61.2,29.66,SE,125,6.9,6.9,48,0.00,SCT,,0.00,940.0,WeatherDisplay:10.37,2013-04-29 18:46:00,
2013-04-29 13:51:00,83.1,61.4,29.66,SSE,167,10.4,10.4,48,0.00,SCT,,0.00,939.0,WeatherDisplay:10.37,2013-04-29 18:51:00,
2013-04-29 13:56:00,83.3,60.4,29.66,SW,220,13.8,13.8,46,0.00,SCT,,0.00,939.0,WeatherDisplay:10.37,2013-04-29 18:56:00,
2013-04-29 14:01:00,83.6,60.6,29.65,South,188,11.5,11.5,46,0.00,SCT,,0.00,935.0,WeatherDisplay:10.37,2013-04-29 19:01:00,
2013-04-29 14:06:00,83.8,60.8,29.65,South,175,6.0,6.0,46,0.00,SCT,,0.00,940.0,WeatherDisplay:10.37,2013-04-29 19:06:00,
2013-04-29 14:11:00,84.0,61.6,29.65,SSE,154,10.4,10.4,47,0.00,SCT,,0.00,935.0,WeatherDisplay:10.37,2013-04-29 19:11:00,
2013-04-29 14:16:00,84.2,60.6,29.65,South,170,8.1,8.1,45,0.00,SCT,,0.00,930.0,WeatherDisplay:10.37,2013-04-29 19:16:00,
2013-04-29 14:21:00,84.3,61.9,29.65,NE,47,9.2,9.2,47,0.00,SCT,,0.00,928.0,WeatherDisplay:10.37,2013-04-29 19:21:00,
2013-04-29 14:26:00,84.3,61.9,29.65,SSE,154,9.2,9.2,47,0.00,SCT,,0.00,926.0,WeatherDisplay:10.37,2013-04-29 19:26:00,
2013-04-29 14:31:00,84.2,63.0,29.65,South,180,10.4,10.4,49,0.00,SCT,,0.00,916.0,WeatherDisplay:10.37,2013-04-29 19:31:00,
2013-04-29 14:36:00,84.3,63.1,29.64,SSE,165,8.1,8.1,49,0.00,SCT,,0.00,914.0,WeatherDisplay:10.37,2013-04-29 19:36:00,
2013-04-29 14:41:00,84.4,60.7,29.64,SSE,153,15.0,15.0,45,0.00,SCT,,0.00,904.0,WeatherDisplay:10.37,2013-04-29 19:41:00,
2013-04-29 14:46:00,84.2,62.4,29.64,SSE,168,9.2,9.2,48,0.00,SCT,,0.00,896.0,WeatherDisplay:10.37,2013-04-29 19:46:00,
2013-04-29 14:51:00,84.3,61.9,29.64,South,186,10.0,10.0,47,0.00,SCT,,0.00,896.0,WeatherDisplay:10.37,2013-04-29 19:51:00,
2013-04-29 14:56:00,84.6,63.9,29.64,SE,130,8.0,8.0,50,0.00,SCT,,0.00,886.0,WeatherDisplay:10.37,2013-04-29 19:56:00,
2013-04-29 15:01:00,84.5,62.7,29.64,SE,125,8.1,8.1,48,0.00,SCT,,0.00,870.0,WeatherDisplay:10.37,2013-04-29 20:01:00,
2013-04-29 15:06:00,84.6,62.7,29.64,South,172,13.8,13.8,48,0.00,SCT,,0.00,870.0,WeatherDisplay:10.37,2013-04-29 20:06:00,
2013-04-29 15:11:00,84.9,64.2,29.63,SE,144,11.5,11.5,50,0.00,SCT,,0.00,861.0,WeatherDisplay:10.37,2013-04-29 20:11:00,
2013-04-29 15:16:00,85.0,63.1,29.63,SSE,167,12.7,12.7,48,0.00,SCT,,0.00,856.0,WeatherDisplay:10.37,2013-04-29 20:16:00,
2013-04-29 15:21:00,84.9,63.0,29.63,SE,136,15.0,15.0,48,0.00,SCT,,0.00,849.0,WeatherDisplay:10.37,2013-04-29 20:21:00,
2013-04-29 15:26:00,85.0,63.1,29.62,ESE,118,9.2,9.2,48,0.00,SCT,,0.00,844.0,WeatherDisplay:10.37,2013-04-29 20:26:00,
2013-04-29 15:31:00,85.1,62.0,29.62,South,172,12.7,12.7,46,0.00,SCT,,0.00,842.0,WeatherDisplay:10.37,2013-04-29 20:31:00,
2013-04-29 15:36:00,85.2,62.7,29.62,South,182,10.4,10.4,47,0.00,SCT,,0.00,809.0,WeatherDisplay:10.37,2013-04-29 20:36:00,
2013-04-29 15:41:00,85.4,62.3,29.62,WSW,246,11.5,11.5,46,0.00,SCT,,0.00,793.0,WeatherDisplay:10.37,2013-04-29 20:41:00,
2013-04-29 15:46:00,85.5,62.4,29.61,SSW,192,11.5,11.5,46,0.00,SCT,,0.00,809.0,WeatherDisplay:10.37,2013-04-29 20:46:00,
2013-04-29 15:51:00,85.8,62.0,29.61,SSE,167,10.4,10.4,45,0.00,SCT,,0.00,784.0,WeatherDisplay:10.37,2013-04-29 20:51:00,
2013-04-29 15:56:00,86.1,62.9,29.60,ESE,105,11.5,11.5,46,0.00,SCT,,0.00,772.0,WeatherDisplay:10.37,2013-04-29 20:56:00,
2013-04-29 16:01:00,86.4,61.9,29.60,SSW,200,8.1,8.1,44,0.00,SCT,,0.00,784.0,WeatherDisplay:10.37,2013-04-29 21:01:00,
2013-04-29 16:06:00,86.6,62.1,29.60,SE,132,8.1,8.1,44,0.00,SCT,,0.00,740.0,WeatherDisplay:10.37,2013-04-29 21:06:00,
2013-04-29 16:11:00,86.7,62.2,29.60,SSW,199,14.0,14.0,44,0.00,FEW,,0.00,666.0,WeatherDisplay:10.37,2013-04-29 21:11:00,
2013-04-29 16:16:00,86.6,61.4,29.60,SSE,158,15.0,15.0,43,0.00,FEW,,0.00,705.0,WeatherDisplay:10.37,2013-04-29 21:16:00,
2013-04-29 16:21:00,86.6,61.4,29.60,SSE,157,13.8,13.8,43,0.00,FEW,,0.00,756.0,WeatherDisplay:10.37,2013-04-29 21:21:00,
2013-04-29 16:26:00,86.8,61.6,29.60,SE,141,9.2,9.2,43,0.00,FEW,,0.00,693.0,WeatherDisplay:10.37,2013-04-29 21:26:00,
2013-04-29 16:31:00,87.0,59.8,29.59,SE,145,11.5,11.5,40,0.00,FEW,,0.00,520.0,WeatherDisplay:10.37,2013-04-29 21:31:00,
2013-04-29 16:36:00,86.8,60.3,29.59,SSW,194,8.1,8.1,41,0.00,FEW,,0.00,501.0,WeatherDisplay:10.37,2013-04-29 21:36:00,
2013-04-29 16:41:00,86.6,60.1,29.59,South,184,10.4,10.4,41,0.00,FEW,,0.00,557.0,WeatherDisplay:10.37,2013-04-29 21:41:00,
2013-04-29 16:46:00,86.6,60.8,29.58,South,173,12.7,12.7,42,0.00,FEW,,0.00,703.0,WeatherDisplay:10.37,2013-04-29 21:46:00,
2013-04-29 16:51:00,86.8,59.6,29.58,SSW,207,19.6,19.6,40,0.00,FEW,,0.00,652.0,WeatherDisplay:10.37,2013-04-29 21:51:00,
2013-04-29 16:56:00,86.6,59.4,29.58,South,191,15.0,15.0,40,0.00,FEW,,0.00,671.0,WeatherDisplay:10.37,2013-04-29 21:56:00,
2013-04-29 17:01:00,86.3,59.8,29.58,South,171,16.0,16.0,41,0.00,FEW,,0.00,543.0,WeatherDisplay:10.37,2013-04-29 22:01:00,
2013-04-29 17:06:00,86.0,60.9,29.58,SSE,163,11.5,11.5,43,0.00,FEW,,0.00,645.0,WeatherDisplay:10.37,2013-04-29 22:06:00,
2013-04-29 17:11:00,86.1,61.6,29.57,South,190,17.3,17.3,44,0.00,FEW,,0.00,577.0,WeatherDisplay:10.37,2013-04-29 22:11:00,
2013-04-29 17:16:00,86.1,61.6,29.57,SSW,202,17.3,17.3,44,0.00,FEW,,0.00,585.0,WeatherDisplay:10.37,2013-04-29 22:16:00,
2013-04-29 17:21:00,86.0,61.5,29.57,South,183,10.4,10.4,44,0.00,FEW,,0.00,555.0,WeatherDisplay:10.37,2013-04-29 22:21:00,
2013-04-29 17:26:00,86.0,61.5,29.57,South,175,18.4,18.4,44,0.00,FEW,,0.00,531.0,WeatherDisplay:10.37,2013-04-29 22:26:00,
2013-04-29 17:31:00,85.8,60.7,29.57,South,175,17.3,17.3,43,0.00,FEW,,0.00,508.0,WeatherDisplay:10.37,2013-04-29 22:31:00,
2013-04-29 17:36:00,85.8,62.0,29.57,SE,140,12.7,12.7,45,0.00,FEW,,0.00,496.0,WeatherDisplay:10.37,2013-04-29 22:36:00,
2013-04-29 17:41:00,85.8,60.7,29.57,SSE,168,11.5,11.5,43,0.00,FEW,,0.00,478.0,WeatherDisplay:10.37,2013-04-29 22:41:00,
2013-04-29 17:46:00,85.9,59.5,29.57,SSE,159,13.8,13.8,41,0.00,FEW,,0.00,462.0,WeatherDisplay:10.37,2013-04-29 22:46:00,
2013-04-29 17:51:00,85.9,59.5,29.57,South,187,12.0,12.0,41,0.00,FEW,,0.00,439.0,WeatherDisplay:10.37,2013-04-29 22:51:00,
2013-04-29 17:56:00,85.6,58.5,29.57,SE,142,15.0,15.0,40,0.00,FEW,,0.00,424.0,WeatherDisplay:10.37,2013-04-29 22:56:00,
2013-04-29 18:01:00,85.2,58.8,29.57,SSW,205,20.7,20.7,41,0.00,FEW,,0.00,406.0,WeatherDisplay:10.37,2013-04-29 23:01:00,
2013-04-29 18:06:00,85.0,58.7,29.56,South,174,18.0,18.0,41,0.00,FEW,,0.00,392.0,WeatherDisplay:10.37,2013-04-29 23:06:00,
2013-04-29 18:11:00,84.8,58.5,29.56,SSE,161,13.8,13.8,41,0.00,FEW,,0.00,373.0,WeatherDisplay:10.37,2013-04-29 23:11:00,
2013-04-29 18:16:00,84.6,59.0,29.56,SSE,150,12.7,12.7,42,0.00,FEW,,0.00,352.0,WeatherDisplay:10.37,2013-04-29 23:16:00,
2013-04-29 18:21:00,84.2,59.3,29.56,ESE,104,10.4,10.4,43,0.00,FEW,,0.00,334.0,WeatherDisplay:10.37,2013-04-29 23:21:00,
2013-04-29 18:26:00,83.8,60.2,29.56,South,188,11.5,11.5,45,0.00,FEW,,0.00,313.0,WeatherDisplay:10.37,2013-04-29 23:26:00,
2013-04-29 18:31:00,83.3,61.0,29.56,SSE,154,8.1,8.1,47,0.00,FEW,,0.00,295.0,WeatherDisplay:10.37,2013-04-29 23:31:00,
2013-04-29 18:36:00,82.9,61.8,29.56,SSE,168,10.0,10.0,49,0.00,FEW,,0.00,274.0,WeatherDisplay:10.37,2013-04-29 23:36:00,
2013-04-29 18:41:00,82.5,61.4,29.57,SSW,194,12.7,12.7,49,0.00,FEW,,0.00,54.0,WeatherDisplay:10.37,2013-04-29 23:41:00,
2013-04-29 18:46:00,82.2,61.7,29.56,SE,140,11.5,11.5,50,0.00,FEW,,0.00,51.0,WeatherDisplay:10.37,2013-04-29 23:46:00,
2013-04-29 18:51:00,81.9,61.4,29.56,SSW,196,6.9,6.9,50,0.00,FEW,,0.00,49.0,WeatherDisplay:10.37,2013-04-29 23:51:00,
2013-04-29 18:56:00,81.6,61.2,29.56,SE,125,13.8,13.8,50,0.00,FEW,,0.00,47.0,WeatherDisplay:10.37,2013-04-29 23:56:00,
2013-04-29 19:01:00,81.2,60.8,29.55,SSE,155,19.6,19.6,50,0.00,FEW,,0.00,46.0,WeatherDisplay:10.37,2013-04-30 00:01:00,
2013-04-29 19:06:00,80.9,60.5,29.55,SSE,153,10.4,10.4,50,0.00,FEW,,0.00,42.0,WeatherDisplay:10.37,2013-04-30 00:06:00,
2013-04-29 19:11:00,80.5,60.1,29.55,SSE,151,17.3,17.3,50,0.00,FEW,,0.00,40.0,WeatherDisplay:10.37,2013-04-30 00:11:00,
2013-04-29 19:16:00,80.1,60.3,29.55,SSE,167,11.5,11.5,51,0.00,FEW,,0.00,39.0,WeatherDisplay:10.37,2013-04-30 00:16:00,
2013-04-29 19:21:00,79.8,59.5,29.55,East,84,18.4,18.4,50,0.00,FEW,,0.00,37.0,WeatherDisplay:10.37,2013-04-30 00:21:00,
2013-04-29 19:26:00,79.5,59.2,29.55,SSE,147,13.8,13.8,50,0.00,FEW,,0.00,35.0,WeatherDisplay:10.37,2013-04-30 00:26:00,
2013-04-29 19:31:00,79.3,59.0,29.55,South,169,11.5,11.5,50,0.00,FEW,,0.00,33.0,WeatherDisplay:10.37,2013-04-30 00:31:00,
2013-04-29 19:36:00,78.9,58.7,29.55,South,184,11.5,11.5,50,0.00,FEW,,0.00,30.0,WeatherDisplay:10.37,2013-04-30 00:36:00,
2013-04-29 19:41:00,78.6,59.0,29.55,SE,138,11.5,11.5,51,0.00,FEW,,0.00,28.0,WeatherDisplay:10.37,2013-04-30 00:41:00,
2013-04-29 19:46:00,78.3,58.7,29.55,East,94,13.8,13.8,51,0.00,FEW,,0.00,25.0,WeatherDisplay:10.37,2013-04-30 00:46:00,
2013-04-29 19:51:00,78.0,58.9,29.55,SE,126,7.0,7.0,52,0.00,FEW,,0.00,23.0,WeatherDisplay:10.37,2013-04-30 00:51:00,
2013-04-29 19:56:00,77.7,58.1,29.55,SSE,158,12.7,12.7,51,0.00,FEW,,0.00,19.0,WeatherDisplay:10.37,2013-04-30 00:56:00,
2013-04-29 20:01:00,77.5,58.5,29.55,SE,142,12.7,12.7,52,0.00,CLR,,0.00,14.0,WeatherDisplay:10.37,2013-04-30 01:01:00,
2013-04-29 20:06:00,77.2,58.2,29.55,SE,144,15.0,15.0,52,0.00,CLR,,0.00,11.0,WeatherDisplay:10.37,2013-04-30 01:06:00,
2013-04-29 20:11:00,76.9,57.9,29.55,SE,145,11.5,11.5,52,0.00,CLR,,0.00,7.0,WeatherDisplay:10.37,2013-04-30 01:11:00,
2013-04-29 20:16:00,76.6,57.7,29.55,SSE,156,9.2,9.2,52,0.00,CLR,,0.00,0.0,WeatherDisplay:10.37,2013-04-30 01:16:00,
2013-04-29 20:21:00,76.4,57.5,29.55,SE,126,13.8,13.8,52,0.00,CLR,,0.00,0.0,WeatherDisplay:10.37,2013-04-30 01:21:00,
2013-04-29 20:26:00,76.0,57.6,29.55,SSE,151,5.8,5.8,53,0.00,CLR,,0.00,0.0,WeatherDisplay:10.37,2013-04-30 01:26:00,
2013-04-29 20:31:00,75.7,57.4,29.55,SSE,168,9.2,9.2,53,0.00,CLR,,0.00,0.0,WeatherDisplay:10.37,2013-04-30 01:31:00,
2013-04-29 20:36:00,75.3,57.0,29.55,South,169,13.8,13.8,53,0.00,CLR,,0.00,0.0,WeatherDisplay:10.37,2013-04-30 01:36:00,
2013-04-29 20:41:00,75.1,56.8,29.56,SSE,159,10.4,10.4,53,0.00,CLR,,0.00,0.0,WeatherDisplay:10.37,2013-04-30 01:41:00,
2013-04-29 20:46:00,74.9,56.6,29.56,South,171,11.5,11.5,53,0.00,CLR,,0.00,0.0,WeatherDisplay:10.37,2013-04-30 01:46:00,
2013-04-29 20:51:00,74.8,57.0,29.56,SSE,151,9.2,9.2,54,0.00,CLR,,0.00,0.0,WeatherDisplay:10.37,2013-04-30 01:51:00,
2013-04-29 20:56:00,74.6,56.3,29.56,SSE,162,9.2,9.2,53,0.00,CLR,,0.00,0.0,WeatherDisplay:10.37,2013-04-30 01:56:00,
2013-04-29 21:01:00,74.4,56.2,29.56,SSE,160,11.5,11.5,53,0.00,CLR,,0.00,0.0,WeatherDisplay:10.37,2013-04-30 02:01:00,
2013-04-29 21:06:00,74.3,56.1,29.56,SSE,167,11.5,11.5,53,0.00,CLR,,0.00,0.0,WeatherDisplay:10.37,2013-04-30 02:06:00,
2013-04-29 21:11:00,74.2,56.0,29.56,South,184,16.1,16.1,53,0.00,CLR,,0.00,0.0,WeatherDisplay:10.37,2013-04-30 02:11:00,
2013-04-29 21:16:00,74.1,55.3,29.56,South,177,11.5,11.5,52,0.00,CLR,,0.00,0.0,WeatherDisplay:10.37,2013-04-30 02:16:00,
2013-04-29 21:21:00,74.0,55.3,29.57,SSE,152,12.0,12.0,52,0.00,CLR,,0.00,0.0,WeatherDisplay:10.37,2013-04-30 02:21:00,
2013-04-29 21:26:00,73.8,55.6,29.57,SE,136,6.9,6.9,53,0.00,CLR,,0.00,0.0,WeatherDisplay:10.37,2013-04-30 02:26:00,
2013-04-29 21:31:00,73.6,55.9,29.57,SE,132,8.1,8.1,54,0.00,CLR,,0.00,0.0,WeatherDisplay:10.37,2013-04-30 02:31:00,
2013-04-29 21:36:00,73.3,55.6,29.57,SSE,165,12.7,12.7,54,0.00,CLR,,0.00,0.0,WeatherDisplay:10.37,2013-04-30 02:36:00,
2013-04-29 21:41:00,73.1,55.5,29.57,SSE,154,8.1,8.1,54,0.00,CLR,,0.00,0.0,WeatherDisplay:10.37,2013-04-30 02:41:00,
2013-04-29 21:46:00,72.9,55.8,29.57,SE,135,7.0,7.0,55,0.00,CLR,,0.00,0.0,WeatherDisplay:10.37,2013-04-30 02:46:00,
2013-04-29 21:51:00,72.6,55.5,29.57,South,179,9.2,9.2,55,0.00,CLR,,0.00,0.0,WeatherDisplay:10.37,2013-04-30 02:51:00,
2013-04-29 21:56:00,72.5,55.4,29.58,SSE,152,9.2,9.2,55,0.00,CLR,,0.00,0.0,WeatherDisplay:10.37,2013-04-30 02:56:00,
2013-04-29 22:01:00,72.3,55.2,29.57,SE,146,5.8,5.8,55,0.00,FEW,,0.00,0.0,WeatherDisplay:10.37,2013-04-30 03:01:00,
2013-04-29 22:06:00,72.2,55.6,29.57,SSE,155,9.2,9.2,56,0.00,FEW,,0.00,0.0,WeatherDisplay:10.37,2013-04-30 03:06:00,
2013-04-29 22:11:00,72.0,55.4,29.58,SSE,160,13.8,13.8,56,0.00,FEW,,0.00,0.0,WeatherDisplay:10.37,2013-04-30 03:11:00,
2013-04-29 22:16:00,71.9,55.3,29.58,SSE,149,6.9,6.9,56,0.00,FEW,,0.00,0.0,WeatherDisplay:10.37,2013-04-30 03:16:00,
2013-04-29 22:21:00,71.7,55.7,29.58,South,169,5.8,5.8,57,0.00,FEW,,0.00,0.0,WeatherDisplay:10.37,2013-04-30 03:21:00,
2013-04-29 22:26:00,71.5,55.5,29.58,SE,126,11.5,11.5,57,0.00,FEW,,0.00,0.0,WeatherDisplay:10.37,2013-04-30 03:26:00,
2013-04-29 22:31:00,71.4,55.9,29.58,SSE,159,9.2,9.2,58,0.00,FEW,,0.00,0.0,WeatherDisplay:10.37,2013-04-30 03:31:00,
2013-04-29 22:36:00,71.3,55.8,29.58,SSE,161,12.7,12.7,58,0.00,FEW,,0.00,0.0,WeatherDisplay:10.37,2013-04-30 03:36:00,
2013-04-29 22:41:00,71.2,55.7,29.58,SE,142,10.4,10.4,58,0.00,FEW,,0.00,0.0,WeatherDisplay:10.37,2013-04-30 03:41:00,
2013-04-29 22:46:00,71.2,55.2,29.58,South,184,11.5,11.5,57,0.00,FEW,,0.00,0.0,WeatherDisplay:10.37,2013-04-30 03:46:00,
2013-04-29 22:51:00,71.2,55.2,29.58,South,169,11.5,11.5,57,0.00,FEW,,0.00,0.0,WeatherDisplay:10.37,2013-04-30 03:51:00,
2013-04-29 22:56:00,71.3,55.3,29.59,SSW,196,19.6,19.6,57,0.00,FEW,,0.00,0.0,WeatherDisplay:10.37,2013-04-30 03:56:00,
2013-04-29 23:01:00,71.4,54.9,29.59,SSE,155,13.8,13.8,56,0.00,FEW,,0.00,0.0,WeatherDisplay:10.37,2013-04-30 04:01:00,
2013-04-29 23:06:00,71.4,54.9,29.59,South,173,10.0,10.0,56,0.00,FEW,,0.00,0.0,WeatherDisplay:10.37,2013-04-30 04:06:00,
2013-04-29 23:11:00,71.2,55.2,29.59,South,175,11.5,11.5,57,0.00,FEW,,0.00,0.0,WeatherDisplay:10.37,2013-04-30 04:11:00,
2013-04-29 23:16:00,71.1,54.6,29.59,South,169,16.1,16.1,56,0.00,FEW,,0.00,0.0,WeatherDisplay:10.37,2013-04-30 04:16:00,
2013-04-29 23:21:00,71.0,54.5,29.59,SE,136,10.0,10.0,56,0.00,FEW,,0.00,0.0,WeatherDisplay:10.37,2013-04-30 04:21:00,
2013-04-29 23:26:00,71.0,54.5,29.60,SSW,213,13.8,13.8,56,0.00,FEW,,0.00,0.0,WeatherDisplay:10.37,2013-04-30 04:26:00,
2013-04-29 23:31:00,70.9,54.4,29.60,South,185,11.5,11.5,56,0.00,FEW,,0.00,0.0,WeatherDisplay:10.37,2013-04-30 04:31:00,
2013-04-29 23:36:00,70.9,54.4,29.60,South,170,15.0,15.0,56,0.00,FEW,,0.00,0.0,WeatherDisplay:10.37,2013-04-30 04:36:00,
2013-04-29 23:41:00,71.0,54.5,29.60,South,188,13.8,13.8,56,0.00,FEW,,0.00,0.0,WeatherDisplay:10.37,2013-04-30 04:41:00,
2013-04-29 23:46:00,71.0,54.5,29.60,SE,129,12.7,12.7,56,0.00,FEW,,0.00,0.0,WeatherDisplay:10.37,2013-04-30 04:46:00,
2013-04-29 23:51:00,70.9,54.4,29.60,South,189,10.4,10.4,56,0.00,FEW,,0.00,0.0,WeatherDisplay:10.37,2013-04-30 04:51:00,
2013-04-29 23:56:00,70.8,54.3,29.60,South,169,17.3,17.3,56,0.00,FEW,,0.00,0.0,WeatherDisplay:10.37,2013-04-30 04:56:00,